Theta_e
347 355 362 363 361 362 363 362 362 363 363 364 365 364 363 362 362 363 363 363 363 365 364 361 362 362 362 361 360 361 361 362 363 361 359 358 359 359 360 360 360 353 357
352 357 363 364 362 363 364 363 363 364 363 365 364 364 363 362 362 362 364 363 363 364 362 362 362 362 359 358 359 358 358 359 360 360 362 360 360 360 361 360 359 357 359
353 356 358 364 364 363 364 364 364 364 363 365 363 364 365 363 362 362 364 362 363 364 362 362 362 360 358 358 359 359 357 358 356 360 360 355 355 360 361 360 359 359 359
352 354 358 363 364 363 363 364 365 362 363 363 363 364 365 363 365 363 362 362 364 364 362 362 361 358 358 359 358 359 359 361 362 359 353 352 354 360 360 359 359 359 359
351 355 357 366 366 363 363 363 366 365 363 363 364 365 363 364 363 362 362 363 362 364 362 362 361 360 359 360 360 360 361 362 362 355 351 352 354 358 361 361 360 360 359
352 357 362 364 364 364 363 364 363 365 363 364 365 365 364 363 361 361 361 362 362 362 360 361 358 357 357 359 359 362 363 362 357 352 353 355 353 360 360 360 360 360 359
347 352 355 363 362 362 363 363 364 364 364 363 364 364 365 363 361 362 363 363 362 361 359 359 358 357 356 356 357 359 363 358 346 347 348 351 353 360 360 360 359 358 357
350 351 353 362 363 361 362 363 363 362 363 364 366 364 364 364 363 366 363 361 361 360 359 357 356 356 354 352 354 359 361 358 347 345 347 349 357 357 355 356 355 354 354
353 353 353 354 359 360 363 363 362 362 363 364 364 365 363 363 363 364 365 362 361 361 359 357 356 354 353 350 352 357 364 358 345 346 348 349 359 358 354 354 353 352 353
350 351 351 352 353 353 356 363 363 362 363 364 364 364 364 363 363 363 365 365 361 360 360 358 355 354 354 356 356 360 363 360 347 351 350 350 356 352 352 351 352 352 352
345 349 350 351 350 352 353 357 361 362 363 365 363 365 364 353 353 357 360 364 361 360 359 360 358 357 356 356 359 358 358 342 340 343 346 354 355 352 352 352 352 352 352
343 345 348 350 349 350 353 353 352 356 354 353 354 356 354 352 351 355 358 360 358 361 360 360 360 358 358 352 348 355 345 337 341 344 348 356 356 352 353 353 353 353 352
343 345 345 346 347 347 349 352 350 352 352 353 354 353 350 351 351 351 352 351 351 357 353 359 359 358 355 355 352 347 341 338 340 345 353 357 357 353 354 353 352 352 353
341 345 347 347 346 348 350 351 349 349 349 351 352 351 351 349 347 347 348 347 348 351 350 350 352 353 351 350 345 338 333 334 337 346 353 358 358 355 354 354 354 354 355
340 344 347 348 349 349 350 350 348 345 348 349 350 349 349 352 350 342 346 342 346 350 347 344 345 347 344 344 344 342 337 334 337 341 345 356 359 358 356 356 356 356 356
344 346 348 350 346 345 350 350 345 346 347 346 342 347 348 347 343 344 346 342 344 348 348 345 343 343 343 344 342 345 344 341 338 340 343 349 359 359 359 357 357 357 358
343 346 345 349 351 348 344 343 343 349 350 346 340 347 351 346 350 343 340 345 344 346 347 344 343 345 342 345 343 344 345 346 344 343 344 346 352 360 361 361 362 362 362
344 343 346 350 350 348 347 345 345 347 346 349 348 355 353 353 349 347 344 345 351 353 356 350 344 343 340 340 341 343 345 346 346 345 346 346 347 349 359 363 363 362 363
344 343 345 350 347 348 350 350 346 346 348 348 348 351 353 347 349 346 348 349 350 350 347 347 348 345 340 340 343 343 344 344 345 350 346 347 346 347 349 358 361 361 362
345 345 349 349 348 349 349 351 348 349 346 348 349 350 352 351 349 346 347 339 340 345 349 351 350 346 337 340 344 345 342 345 345 344 344 348 348 348 348 346 352 355 361
345 347 346 345 348 350 346 341 343 343 350 349 350 352 354 348 339 345 346 331 336 339 344 350 351 350 341 335 346 342 340 340 342 343 344 344 346 348 349 351 350 351 353
342 346 347 348 348 347 346 345 346 349 348 352 350 353 352 351 352 354 350 340 339 348 347 348 350 351 344 344 340 344 334 337 341 340 342 347 341 346 347 351 355 354 351
341 344 348 346 346 346 344 348 346 348 344 345 348 346 351 352 350 353 354 351 346 344 345 351 353 350 348 348 346 338 330 329 336 336 337 340 344 345 347 347 353 354 354
341 343 348 348 348 345 342 343 341 340 338 345 346 348 348 351 352 354 350 351 344 336 335 349 356 354 351 347 342 339 334 341 334 331 333 336 344 340 344 343 344 351 353
344 346 350 348 348 349 346 345 342 342 343 346 348 352 352 350 349 352 349 352 349 341 347 350 353 353 355 349 348 346 345 338 333 327 324 331 337 339 343 344 340 344 338
348 350 351 349 348 350 348 347 345 344 345 343 346 349 348 349 349 353 353 350 352 352 348 351 353 350 354 352 348 339 339 335 333 328 324 325 327 332 338 345 340 346 345
Wind_Speed
5 8 13 15 14 15 15 15 14 14 15 15 16 18 18 18 16 17 17 18 18 17 18 18 17 16 16 15 15 15 16 15 15 16 14 13 13 11 12 16 15 13 14
12 9 14 15 16 15 15 15 14 14 15 15 16 17 17 18 19 17 18 18 17 18 19 17 16 15 15 16 16 15 14 13 15 17 20 18 14 15 14 15 14 12 12
14 10 12 14 15 15 14 14 14 15 16 15 15 15 16 18 18 17 17 18 17 18 18 17 16 15 14 15 16 14 14 11 7 17 19 9 9 16 15 15 14 13 12
14 11 10 14 15 15 15 14 13 15 16 16 16 14 17 17 15 17 18 17 16 16 17 15 15 14 13 13 14 12 13 15 14 18 9 8 11 16 15 14 14 13 12
15 11 11 14 15 16 15 14 13 14 16 16 15 15 16 16 17 15 15 15 15 15 15 15 13 13 12 13 14 13 14 13 18 14 9 7 5 12 15 15 13 13 12
14 10 13 15 16 16 15 14 14 14 15 15 15 15 16 15 15 14 14 13 13 15 15 13 12 10 9 11 10 7 14 17 18 11 8 7 6 14 14 13 13 13 12
13 10 10 14 14 15 15 14 14 14 15 16 15 15 14 14 14 15 15 15 15 14 14 12 11 9 7 7 7 8 15 18 11 9 7 5 6 13 13 14 13 12 12
16 12 10 14 15 14 15 15 14 14 16 16 15 15 14 13 13 13 14 14 14 14 12 10 10 8 5 2 5 8 7 16 13 9 6 4 9 12 12 12 11 11 10
17 13 9 7 14 16 14 15 14 14 15 16 16 15 13 14 14 13 12 12 12 11 11 8 8 7 5 2 3 5 6 16 11 7 8 3 9 11 12 10 10 9 8
14 14 11 7 7 6 7 14 15 14 14 15 16 15 14 13 13 12 8 10 11 11 9 6 4 4 3 4 3 7 11 15 9 9 5 3 8 10 10 9 8 8 7
6 12 10 10 7 8 6 9 12 14 12 12 12 14 11 4 5 6 6 8 8 8 8 8 6 4 5 6 6 1 5 4 7 5 3 8 8 9 8 7 7 6 5
3 7 8 9 9 10 8 6 5 6 4 4 5 5 2 4 5 6 4 3 2 6 5 6 5 3 5 5 4 1 3 6 6 6 3 8 8 8 7 6 5 4 4
6 7 7 6 7 8 6 3 3 3 3 4 7 6 5 4 3 3 1 1 3 4 2 5 5 4 7 5 4 1 5 5 4 4 6 9 8 8 7 6 4 3 3
7 7 9 6 7 6 5 4 4 2 4 3 3 6 4 2 2 5 2 6 1 4 4 5 3 7 4 5 5 6 5 5 4 3 6 9 8 8 7 6 5 5 4
11 5 7 6 6 6 9 5 4 4 4 4 2 3 3 5 5 4 5 3 1 3 1 4 1 4 4 5 6 8 8 6 6 4 3 12 10 8 8 7 5 4 4
14 9 7 6 6 6 4 7 5 4 5 1 3 1 5 4 4 5 4 3 3 3 4 1 1 2 3 4 4 4 7 6 6 5 4 5 10 10 10 8 7 7 6
13 11 9 7 5 3 4 6 7 8 5 0 1 1 6 4 12 6 2 3 3 5 5 2 2 2 2 1 2 4 3 5 7 6 4 4 5 10 10 10 10 9 8
13 12 10 8 7 3 1 3 3 9 10 5 6 4 6 4 9 4 5 4 3 3 1 3 2 2 3 4 3 4 3 4 4 8 6 5 4 5 8 11 10 9 9
12 9 7 7 7 5 1 4 5 9 9 5 5 5 5 6 4 6 1 3 3 4 2 2 4 3 2 2 3 3 4 4 5 5 8 6 7 5 4 10 11 10 11
12 11 11 5 8 5 2 2 4 4 2 4 5 5 6 5 6 4 2 4 5 4 4 4 4 4 1 1 3 5 4 5 4 4 4 6 6 6 6 6 5 5 11
9 13 13 8 6 4 2 2 3 3 3 3 4 7 7 6 6 7 5 3 3 4 5 2 3 2 1 2 3 3 3 2 4 4 4 3 8 7 6 5 4 4 4
9 12 9 7 7 4 3 1 2 2 3 2 3 4 6 7 5 5 4 1 5 5 6 5 5 4 2 1 1 3 4 5 5 2 1 1 4 4 5 5 4 5 5
12 11 10 8 8 4 2 3 3 4 3 3 1 1 3 5 4 4 5 6 3 2 3 4 3 5 3 4 6 5 2 2 3 3 3 10 14 8 11 16 11 9 6
13 11 11 9 8 6 6 1 4 3 4 3 3 2 3 3 3 4 6 5 2 2 2 3 4 3 4 5 4 7 8 6 5 7 6 9 10 10 11 10 9 13 13
15 14 13 10 8 11 8 7 5 3 2 3 2 4 3 2 3 4 5 6 4 1 2 3 3 6 4 2 3 3 6 3 8 3 3 9 6 7 8 4 5 2 13
15 14 13 14 9 10 11 12 9 7 5 3 3 4 4 3 4 2 5 5 4 2 2 3 2 6 4 4 3 4 4 4 3 4 4 3 4 8 6 1 3 5 5
Wind_Direction
112 121 120 120 114 109 106 100 97 92 93 94 93 94 95 92 92 93 95 94 91 91 88 87 83 83 82 84 81 79 77 80 80 86 92 106 105 114 108 103 94 92 96
123 122 115 115 113 107 104 105 103 100 94 92 94 97 100 99 99 99 98 97 96 94 92 92 91 91 93 91 84 81 83 85 83 91 92 94 101 98 111 99 96 98 94
116 121 114 112 109 105 102 99 98 97 100 98 99 101 102 97 99 102 99 96 98 102 97 95 96 92 94 91 90 88 106 96 88 96 91 89 97 104 104 104 99 96 92
127 118 117 114 108 106 103 102 100 106 107 103 106 104 101 100 97 95 96 93 91 90 93 98 97 95 92 89 93 83 93 97 99 82 73 74 94 101 100 100 100 95 92
110 114 120 116 113 107 99 98 95 105 108 107 109 107 109 109 102 97 96 100 99 99 98 100 96 97 97 83 81 108 109 103 91 88 81 74 77 103 102 99 92 94 95
112 114 114 118 110 108 107 104 100 106 113 114 113 107 107 104 107 107 110 109 107 105 100 102 103 101 94 84 78 71 147 112 95 85 74 70 79 92 94 97 96 92 92
116 118 115 119 117 115 112 109 106 106 117 116 118 112 112 109 112 112 106 112 104 104 108 110 109 100 83 94 111 72 104 106 95 87 77 64 83 88 88 89 91 84 81
123 124 124 130 125 122 115 115 111 110 116 124 122 118 112 111 114 115 110 108 109 111 115 115 115 111 122 106 56 55 47 107 96 97 90 78 99 103 95 92 90 88 87
129 131 129 124 126 127 126 124 122 120 122 124 125 124 122 120 118 120 120 121 121 116 118 133 131 140 144 163 113 72 67 121 121 122 106 95 89 89 100 99 95 94 92
138 135 132 134 131 124 122 130 128 129 129 133 135 134 134 127 130 124 126 131 127 130 128 140 151 173 204 236 217 107 96 125 109 99 104 107 109 106 105 104 104 102 103
133 132 145 148 149 127 130 135 135 139 140 137 140 146 139 134 132 127 158 138 135 138 150 162 180 227 252 265 269 168 116 128 115 108 115 124 121 117 118 120 118 118 116
125 121 145 157 148 146 138 137 146 151 139 149 145 148 174 170 149 154 156 147 134 160 183 206 202 241 302 304 299 286 88 132 113 119 133 142 142 136 135 135 135 136 131
163 122 144 147 161 129 135 157 167 163 171 171 173 178 162 133 160 126 56 62 323 261 211 227 203 240 239 239 246 166 154 130 129 138 154 161 158 152 151 152 156 170 175
100 133 139 140 127 115 135 183 192 159 155 155 181 156 138 121 17 112 340 50 266 292 288 249 198 236 249 284 201 139 153 123 130 132 162 168 173 170 167 175 186 193 204
129 177 134 148 125 147 152 196 184 193 155 108 77 10 158 120 232 60 103 291 64 202 303 217 172 167 187 52 47 95 129 131 139 144 168 179 186 185 190 194 202 216 231
138 147 146 127 138 149 174 164 180 98 72 87 138 125 301 127 169 82 47 302 225 219 277 205 89 131 108 102 80 108 128 148 150 157 173 188 193 196 201 205 214 224 237
149 147 141 126 112 84 99 132 125 113 60 266 242 274 111 111 97 102 216 217 288 309 247 293 311 74 108 55 167 143 148 153 161 166 178 187 202 213 213 214 220 225 231
143 144 141 145 153 170 47 71 135 142 170 203 206 97 118 80 73 78 336 315 235 290 279 289 292 321 200 166 202 198 197 184 180 175 170 183 192 204 225 231 235 241 248
150 137 139 145 158 151 90 270 171 146 162 172 111 111 109 84 88 35 147 323 334 15 3 2 49 114 75 340 256 218 192 204 216 188 178 191 201 199 211 226 228 246 258
128 126 137 162 148 146 191 21 82 115 118 140 136 146 134 133 137 144 284 248 48 16 317 23 59 42 232 174 324 267 197 214 215 223 203 169 209 206 214 213 213 234 252
111 127 142 167 136 141 105 63 53 87 107 115 141 151 147 164 161 133 191 94 94 13 307 9 1 9 285 227 348 1 319 241 203 210 233 187 196 215 211 217 212 223 241
132 129 142 145 143 137 114 115 91 85 54 134 152 157 169 154 189 136 136 155 28 357 353 19 19 346 354 301 206 72 6 332 338 100 175 350 184 228 220 222 216 229 225
143 148 139 150 158 129 85 7 57 77 36 54 109 192 203 154 165 143 117 108 129 166 8 342 346 46 8 349 38 131 70 356 316 333 40 40 2 7 12 2 339 4 8
166 161 147 152 151 115 124 349 298 167 142 187 175 204 210 185 193 137 120 129 107 103 79 333 347 38 54 32 328 65 71 59 19 342 19 20 50 19 1 28 9 19 357
165 168 160 159 160 138 165 197 235 246 195 177 170 177 185 206 206 155 154 145 138 325 333 320 353 31 49 73 45 47 61 81 95 92 356 337 338 354 353 65 336 3 242
165 167 164 159 168 154 164 186 189 209 202 169 187 178 177 190 221 240 183 153 144 134 18 328 50 41 20 38 125 92 128 120 157 183 86 278 124 304 275 235 159 317 284